Starlink 31261

operational
NORAD ID: 59084 Int'l Des: 2024-041 Owner: SPXS Country: US Constellation: starlink
LEOCIRCULAR

关于 Starlink 31261

正在加载描述...

实时位置

正在加载3D地球...

即将过境

高度历史

Altitude vs Time

uPlot chart will show altitude changes over time

两行轨道根数

1 59084U 24041L 25302.48519795 -.00001294 00000-0 -37530-4 0 9997
2 59084 43.0040 331.8310 0000374 222.3533 137.7290 15.27562698 94252
Epoch: Oct 29, 2025 • Age: 49 hours

当前状态

高度 482.1 km
速度 7.63 km/s
星下点 7.21°N, 103.1°W
发射日期 Feb 29, 2024
运行时间 1.6 years
类型 internet

技术详情

分类 Payload
质量 730.00 kg
干质量 700.00 kg
总质量 730.00 kg
长度 0.30 m
直径 4.10 m
跨度 29.00 m
形状 Box + pan
制造商 SPXS
平台类型 Starlink V2M
阶段状态 In Orbit
所有者/国家 SPXS/US

大型星座

Loading constellations...